DF5HRN-13 Weather Reports


time (UTC)temp
C
wind
direction
speed
KPH
gust
KPH
rain 1hr
cm
rain 24hr
cm
rain mn
cm
humidity
%
barometer
mb
20260507111506 12 203 0.0 19.3 0.00 0.00 0.00 44 1023.0
20260507110005 12 180 6.4 19.3 0.00 0.00 0.00 44 1023.0
20260507104506 13 158 3.2 19.3 0.00 0.00 0.00 44 1023.0
20260507103005 11 180 1.6 19.3 0.00 0.00 0.00 44 1023.0
20260507101506 11 203 0.0 19.3 0.00 0.00 0.00 44 1023.0
20260507100005 11 180 0.0 19.3 0.00 0.00 0.00 44 1023.0
20260507094505 11 180 3.2 19.3 0.00 0.00 0.00 44 1023.0
20260507093005 11 180 0.0 19.3 0.00 0.00 0.00 44 1023.0
20260507091505 11 203 0.0 19.3 0.00 0.00 0.00 44 1023.0
20260507090006 11 180 1.6 19.3 0.00 0.00 0.00 45 1023.0
20260507084506 11 158 0.0 19.3 0.00 0.00 0.00 44 1023.0
20260507083006 9 180 0.0 19.3 0.00 0.00 0.00 45 1023.0
20260507081506 9 158 0.0 19.3 0.00 0.00 0.00 44 1022.0
20260507080005 9 158 0.0 19.3 0.00 0.00 0.00 45 1022.0
20260507074505 10 180 1.6 19.3 0.00 0.00 0.00 45 1022.0
20260507073005 9 180 0.0 19.3 0.00 0.00 0.00 45 1022.0
20260507071505 10 225 0.0 19.3 0.00 0.00 0.00 45 1022.0
20260507070009 9 158 0.0 19.3 0.00 0.00 0.00 44 1022.0
20260507064505 8 203 1.6 19.3 0.00 0.00 0.00 44 1022.0
20260507063005 8 180 4.8 19.3 0.00 0.00 0.00 44 1022.0
20260507061505 8 158 1.6 19.3 0.00 0.00 0.00 44 1021.0
20260507060005 8 158 0.0 19.3 0.00 0.00 0.00 44 1021.0
20260507054505 8 158 1.6 19.3 0.00 0.00 0.00 44 1021.0
20260507053005 8 203 0.0 19.3 0.00 0.00 0.00 45 1021.0
20260507051505 8 248 3.2 19.3 0.00 0.00 0.00 45 1021.0
20260507050005 8 158 0.0 19.3 0.00 0.00 0.00 45 1021.0
20260507044505 8 180 0.0 19.3 0.00 0.00 0.00 45 1020.0
20260507043005 8 203 0.0 19.3 0.00 0.00 0.00 45 1020.0
20260507041505 8 158 6.4 19.3 0.00 0.00 0.00 45 1020.0
20260507040005 9 225 0.0 19.3 0.00 0.00 0.00 45 1020.0
20260507034505 9 225 0.0 19.3 0.00 0.00 0.00 45 1020.0
20260507033005 9 180 3.2 19.3 0.00 0.00 0.00 45 1020.0
20260507031505 9 225 0.0 19.3 0.00 0.00 0.00 45 1020.0
20260507030005 9 180 1.6 19.3 0.00 0.00 0.00 45 1020.0
20260507024505 9 203 0.0 19.3 0.00 0.00 0.00 45 1020.0
20260507023005 10 203 1.6 19.3 0.00 0.00 0.00 45 1020.0
20260507021505 10 203 3.2 19.3 0.00 0.00 0.00 45 1020.0
20260507020005 10 180 0.0 19.3 0.00 0.00 0.00 45 1020.0
20260507014505 10 180 1.6 19.3 0.00 0.00 0.00 46 1019.0
20260507013005 10 248 1.6 19.3 0.00 0.00 0.00 46 1019.0
20260507011505 10 203 4.8 19.3 0.00 0.00 0.00 46 1019.0
20260507010005 10 248 3.2 19.3 0.00 0.00 0.00 46 1019.0
20260507004505 10 225 4.8 19.3 0.00 0.00 0.00 46 1019.0
20260507003005 11 203 1.6 19.3 0.00 0.00 0.00 47 1019.0
20260507001505 11 203 1.6 19.3 0.00 0.00 0.00 47 1019.0
20260507000005 11 225 4.8 19.3 0.00 0.00 0.00 47 1019.0
20260506234505 11 225 3.2 19.3 0.00 0.00 0.00 47 1019.0
20260506233005 11 270 1.6 19.3 0.00 0.00 0.00 47 1019.0
20260506231505 11 203 0.0 19.3 0.00 0.00 0.00 47 1019.0
20260506230005 11 180 0.0 19.3 0.00 0.00 0.00 47 1019.0
20260506224505 11 225 1.6 19.3 0.00 0.00 0.00 47 1019.0
20260506223005 11 180 0.0 19.3 0.00 0.00 0.00 47 1019.0
20260506221505 11 225 1.6 19.3 0.00 0.00 0.00 46 1019.0
20260506220005 11 225 3.2 19.3 0.00 0.00 0.00 46 1018.0
20260506204505 12 203 0.0 19.3 0.00 0.00 0.00 46 1018.0
20260506203005 12 203 0.0 19.3 0.00 0.00 0.00 46 1018.0
20260506201505 12 203 0.0 19.3 0.00 0.00 0.00 45 1017.0
20260506200005 12 158 0.0 19.3 0.00 0.00 0.00 45 1017.0
20260506194505 12 248 1.6 19.3 0.00 0.00 0.00 45 1016.0
20260506193005 12 225 4.8 19.3 0.00 0.00 0.00 45 1016.0
20260506191505 12 293 0.0 19.3 0.00 0.00 0.00 45 1016.0
20260506190006 12 23 0.0 19.3 0.00 0.00 0.00 43 1016.0
20260506184505 12 0 0.0 19.3 0.00 0.00 0.00 43 1016.0
20260506183005 13 0 4.8 19.3 0.00 0.00 0.00 43 1016.0
20260506181505 13 270 0.0 19.3 0.00 0.00 0.00 43 1015.0
20260506180006 13 270 0.0 19.3 0.00 0.00 0.00 43 1015.0
20260506174505 13 270 0.0 19.3 0.00 0.00 0.00 43 1016.0
20260506173005 13 270 1.6 19.3 0.00 0.00 0.00 42 1016.0
20260506171505 14 203 4.8 19.3 0.00 0.00 0.00 42 1014.0
20260506170005 15 248 4.8 8.0 0.00 0.00 0.00 42 1014.0
20260506164505 17 270 1.6 19.3 0.00 0.00 0.00 42 1013.0
20260506163005 18 315 1.6 19.3 0.00 0.00 0.00 42 1013.0
20260506161505 18 315 4.8 19.3 0.00 0.00 0.00 41 1013.0
20260506160005 18 293 0.0 19.3 0.00 0.00 0.00 41 1013.0
20260506154505 19 315 0.0 19.3 0.00 0.00 0.00 41 1013.0
20260506153005 19 315 0.0 19.3 0.00 0.00 0.00 42 1013.0
20260506151505 19 338 0.0 19.3 0.00 0.00 0.00 42 1014.0
20260506150005 19 315 0.0 19.3 0.00 0.00 0.00 42 1014.0
20260506144505 19 293 0.0 19.3 0.00 0.00 0.00 42 1014.0
20260506143005 19 23 0.0 19.3 0.00 0.00 0.00 42 1014.0
20260506141505 19 0 0.0 19.3 0.00 0.00 0.00 42 1014.0
20260506140005 18 45 0.0 19.3 0.00 0.00 0.00 42 1015.0
20260506134505 19 23 0.0 19.3 0.00 0.00 0.00 42 1015.0
20260506133005 18 180 0.0 19.3 0.00 0.00 0.00 42 1015.0
20260506131505 18 158 1.6 19.3 0.00 0.00 0.00 42 1015.0
20260506130005 18 180 0.0 19.3 0.00 0.00 0.00 42 1015.0
20260506124505 18 135 1.6 19.3 0.00 0.00 0.00 43 1015.0
20260506123005 18 113 1.6 19.3 0.00 0.00 0.00 43 1015.0
20260506121505 18 158 4.8 19.3 0.00 0.00 0.00 43 1016.0
20260506120005 19 135 3.2 19.3 0.00 0.00 0.00 43 1016.0
20260506114505 18 113 4.8 19.3 0.00 0.00 0.00 43 1016.0
20260506113005 18 113 0.0 19.3 0.00 0.00 0.00 43 1016.0